Total_Precipitation_Accumulation
3.27 3.39 3.41 3.56 3.32 3.26 3.24 2.92 2.56 2.59 2.66 2.58 2.28 2.15 2.17 2.14 2.27 2.57 2.87 2.75 2.66 2.88 3.25 3.54 3.79 3.84 3.81 3.81 3.72 3.67 3.58 3.49 3.41 3.16 2.87 2.61 2.44 2.40 2.43 2.53 2.55 2.49 2.42
3.59 3.66 3.74 3.76 3.52 3.52 3.48 3.17 2.93 3.07 2.97 2.86 2.56 2.41 2.39 2.39 2.46 2.66 2.91 2.93 2.57 2.42 2.73 3.26 3.68 3.97 4.09 4.10 3.88 3.69 3.63 3.56 3.54 3.31 3.06 2.81 2.61 2.49 2.43 2.42 2.50 2.47 2.37
3.93 3.98 4.05 3.92 3.69 3.63 3.67 3.57 3.42 3.35 3.16 2.88 2.74 2.74 2.70 2.55 2.51 2.73 2.94 2.99 2.78 2.56 2.64 2.87 3.17 3.57 4.08 4.28 4.18 3.98 3.81 3.73 3.66 3.46 3.25 3.04 2.81 2.61 2.47 2.42 2.40 2.38 2.34
3.82 4.14 4.16 3.93 3.73 3.65 3.79 3.94 3.79 3.65 3.52 3.36 3.09 2.82 2.73 2.71 2.59 2.60 2.62 2.71 2.90 2.78 2.78 2.71 2.85 3.16 3.60 3.95 4.26 4.32 4.15 4.00 3.84 3.62 3.47 3.27 3.09 2.85 2.66 2.58 2.48 2.38 2.34
3.92 4.23 4.31 4.27 3.94 3.91 4.05 3.91 4.09 3.92 3.81 3.52 3.06 2.90 2.65 2.46 2.48 2.48 2.59 2.54 2.61 2.68 2.71 2.68 2.77 2.88 3.16 3.58 3.93 4.16 4.20 4.14 3.88 3.59 3.51 3.44 3.26 3.07 2.88 2.73 2.60 2.43 2.34
4.04 4.30 4.33 4.39 4.21 4.24 4.45 4.44 4.46 4.20 3.82 3.54 3.07 2.89 2.60 2.33 2.22 2.31 2.31 2.34 2.30 2.28 2.36 2.41 2.61 2.57 2.77 3.09 3.54 3.91 4.37 4.49 4.19 3.89 3.73 3.61 3.35 3.06 2.87 2.80 2.73 2.60 2.51
4.68 4.95 4.76 4.72 4.46 4.37 4.42 4.41 4.27 4.17 3.96 3.82 3.71 3.34 2.79 2.35 2.17 2.05 2.07 2.18 2.16 2.07 2.13 2.30 2.38 2.36 2.44 2.58 2.80 3.24 3.98 4.40 4.31 4.09 4.02 3.88 3.61 3.26 3.02 2.96 2.94 2.84 2.70
5.33 5.29 5.23 4.89 4.66 4.53 4.36 4.24 4.14 4.05 3.79 3.72 3.83 3.83 3.30 2.90 2.37 1.89 2.00 2.03 2.05 2.09 2.06 1.97 2.02 2.03 1.99 2.23 2.33 2.68 3.22 3.60 3.95 4.15 4.19 3.88 3.73 3.50 3.27 3.13 3.08 3.00 2.90
5.18 5.10 5.01 4.83 4.66 4.42 4.26 4.20 4.11 4.06 3.87 3.73 3.76 4.01 3.80 3.23 2.64 2.16 1.96 1.96 2.04 2.08 2.02 1.97 1.91 1.91 1.90 2.07 2.17 2.38 2.73 2.88 3.22 3.64 3.95 3.70 3.58 3.62 3.54 3.41 3.34 3.32 3.25
4.86 4.72 4.78 4.73 4.56 4.29 4.12 3.77 3.74 3.87 4.03 3.80 3.63 3.37 3.21 2.99 2.93 2.70 2.35 2.14 2.05 2.01 1.97 1.91 1.83 1.92 1.97 2.14 2.32 2.33 2.42 2.46 2.62 2.94 3.18 3.16 3.16 3.30 3.45 3.34 3.36 3.46 3.49
4.48 4.22 4.27 4.22 4.04 3.83 3.69 3.46 3.43 3.48 3.59 3.55 3.50 3.35 3.21 2.99 2.76 2.75 2.61 2.34 2.21 2.02 1.94 1.96 1.94 1.97 2.01 2.08 2.21 2.24 2.25 2.19 2.26 2.39 2.50 2.60 2.72 2.94 3.15 3.25 3.33 3.47 3.60
4.26 3.92 3.60 3.57 3.54 3.37 3.18 3.11 3.10 3.09 3.14 3.19 3.24 3.14 3.04 2.96 2.86 2.85 2.74 2.52 2.39 2.19 2.07 2.07 2.04 1.97 1.99 1.96 1.90 2.10 2.05 2.02 2.02 2.10 2.14 2.18 2.27 2.47 2.68 2.89 3.17 3.38 3.51
3.76 3.47 3.24 3.14 3.06 3.01 2.91 2.82 2.81 2.70 2.62 2.68 2.67 2.76 2.79 2.70 2.59 2.69 2.81 2.66 2.43 2.27 2.19 2.07 1.93 1.89 1.85 1.93 1.93 1.94 1.80 1.81 1.72 1.69 1.76 1.87 2.01 2.13 2.23 2.40 2.64 2.91 3.11
3.24 2.98 2.87 2.66 2.45 2.33 2.28 2.41 2.44 2.37 2.33 2.29 2.20 2.47 2.55 2.46 2.45 2.48 2.56 2.78 2.76 2.50 2.38 2.19 2.00 1.88 1.84 1.88 1.89 1.74 1.62 1.60 1.50 1.49 1.52 1.58 1.74 1.94 2.02 2.04 2.05 2.12 2.28
2.59 2.48 2.38 2.33 2.24 2.12 2.08 2.10 2.14 2.19 2.17 2.08 2.08 2.23 2.23 2.18 2.24 2.26 2.37 2.55 2.86 2.81 2.58 2.25 2.11 1.97 1.92 1.94 2.02 1.71 1.66 1.62 1.53 1.54 1.56 1.59 1.68 1.85 1.92 1.93 1.82 1.70 1.67
2.28 2.16 2.10 2.05 2.05 1.98 1.94 2.01 1.99 2.02 2.07 1.97 1.95 1.95 1.91 1.86 2.00 2.02 2.12 2.24 2.45 2.72 2.62 2.15 1.97 1.92 1.92 1.82 2.10 1.87 1.79 1.75 1.64 1.79 1.90 1.83 1.81 1.97 2.09 2.13 1.97 1.78 1.69
2.04 1.95 1.89 1.83 1.77 1.77 1.75 1.80 1.74 1.68 1.66 1.65 1.56 1.54 1.58 1.68 1.84 1.84 1.87 2.01 2.23 2.49 2.63 2.21 1.95 2.03 2.17 2.10 2.16 2.06 1.89 1.88 1.84 2.19 2.32 2.49 2.24 2.14 2.20 2.21 2.15 1.91 1.72
1.81 1.79 1.67 1.61 1.56 1.51 1.48 1.45 1.46 1.47 1.46 1.45 1.47 1.54 1.51 1.58 1.72 1.75 1.82 1.89 2.06 2.34 2.52 2.46 2.19 2.19 2.20 2.16 2.27 2.23 1.97 1.81 1.80 2.25 2.49 2.77 2.70 2.41 2.40 2.27 2.16 1.97 1.79
1.64 1.60 1.56 1.53 1.46 1.47 1.39 1.29 1.29 1.36 1.33 1.31 1.40 1.48 1.54 1.77 1.78 1.76 1.83 1.87 1.96 2.07 2.41 2.48 2.26 2.27 2.27 2.29 2.51 2.30 2.09 2.09 1.75 2.03 2.49 2.83 2.89 2.82 2.85 2.72 2.45 2.11 1.86
1.59 1.54 1.55 1.48 1.42 1.40 1.39 1.34 1.30 1.35 1.38 1.35 1.37 1.44 1.55 1.73 1.85 1.94 1.86 1.96 2.02 2.16 2.33 2.47 2.42 2.40 2.43 2.44 2.48 2.40 2.27 2.12 1.89 1.81 2.30 2.71 2.99 3.02 3.14 3.21 2.95 2.52 2.12
1.51 1.51 1.50 1.43 1.42 1.39 1.33 1.35 1.35 1.35 1.43 1.46 1.42 1.41 1.43 1.55 1.68 1.68 1.55 1.69 1.90 2.15 2.22 2.41 2.46 2.49 2.42 2.49 2.36 2.14 2.10 2.09 1.92 1.77 1.98 2.31 2.96 3.25 3.28 3.36 3.29 2.85 2.38
1.54 1.52 1.49 1.45 1.40 1.14 1.23 1.26 1.27 1.34 1.42 1.44 1.45 1.46 1.40 1.33 1.26 1.24 1.28 1.37 1.58 1.89 2.24 2.50 2.43 2.41 2.30 2.22 2.24 2.18 2.20 2.24 2.16 1.80 1.79 2.01 2.52 3.28 3.46 3.36 3.33 2.81 2.31
1.53 1.46 1.43 1.44 1.38 1.25 1.25 1.16 1.18 1.31 1.46 1.55 1.63 1.64 1.36 1.18 1.28 1.24 1.28 1.34 1.46 1.64 1.96 2.37 2.47 2.26 2.25 2.21 2.32 2.31 2.38 2.39 2.23 1.91 1.97 2.17 2.47 3.09 3.18 3.12 3.09 2.50 2.11
1.51 1.49 1.46 1.43 1.40 1.28 1.22 1.13 1.17 1.23 1.40 1.45 1.48 1.53 1.54 1.44 1.36 1.43 1.46 1.49 1.57 1.69 1.80 1.87 2.19 2.08 1.91 2.01 2.17 2.25 2.42 2.43 2.28 2.03 2.07 2.32 2.47 2.90 2.80 2.84 2.76 2.32 2.00
1.50 1.44 1.43 1.47 1.52 1.44 1.29 1.16 1.10 1.11 1.25 1.31 1.30 1.29 1.26 1.30 1.41 1.62 1.74 1.91 1.98 2.05 1.93 2.04 2.16 2.08 1.96 1.95 1.94 2.13 2.48 2.56 2.36 2.11 2.09 2.39 2.50 2.59 2.64 2.65 2.37 2.21 1.96
1.49 1.45 1.41 1.46 1.46 1.36 1.19 1.02 0.98 0.99 1.15 1.24 1.33 1.31 1.19 1.10 1.27 1.46 1.67 2.01 2.14 2.23 2.12 2.20 2.41 2.36 2.14 2.17 2.23 2.19 2.48 2.67 2.56 2.39 2.07 2.19 2.36 2.41 2.59 2.45 2.23 2.09 2.03